Location: Unspecified
(0.0000°N, 0.0000°E)
Time: 21:39:09
(UTC+00:00)

Transit 4A - Pass Details

Date: 28 April 2024
Orbit: 871 x 971 km, 66.8° (Epoch: 22 May)

Event Time Altitude Azimuth Distance (km) Brightness Sun altitude
Rises 21:56:09 0° 321° (NW) 3,491 - -56.7°
Reaches altitude 10° 21:58:52 10° 311° (NW) 2,569 - -57.3°
Maximum altitude 22:04:05 32° 250° (WSW) 1,528 - -58.4°
Drops below altitude 10° 22:09:27 10° 189° (S) 2,638 - -59.6°
Sets 22:12:18 0° 179° (S) 3,601 - -60.2°
